Date,TemperatureHighF,TemperatureAvgF,TemperatureLowF,DewpointHighF,DewpointAvgF,DewpointLowF,HumidityHigh,HumidityAvg,HumidityLow,PressureMaxIn,PressureMinIn,WindSpeedMaxMPH,WindSpeedAvgMPH,GustSpeedMaxMPH,PrecipitationSumIn
2014-1-1,21.0,17.8,15.0,-99.9,-99.9,-99.9,0,0,100,30.39,30.23,28,10,36,0.00
2014-1-2,17.0,13.2,8.0,-99.9,-99.9,-99.9,0,0,100,30.31,30.03,18,11,29,0.00
2014-1-3,11.0,6.3,3.0,-99.9,-99.9,-99.9,0,0,100,30.40,30.11,17,10,23,0.00
2014-1-4,36.0,27.7,15.0,-99.9,-99.9,-99.9,0,0,100,30.24,29.95,23,13,31,0.00
2014-1-5,36.0,33.3,31.0,-99.9,-99.9,-99.9,0,0,100,30.09,29.44,8,4,15,0.00
2014-1-6,45.0,21.8,3.0,-99.9,-99.9,-99.9,0,0,100,29.83,29.20,29,18,40,0.00
2014-1-7,6.0,2.6,-3.0,-99.9,-99.9,-99.9,0,0,100,30.27,29.86,28,20,38,0.00
2014-1-8,21.0,14.8,7.0,-99.9,-99.9,-99.9,0,0,100,30.44,30.28,15,11,24,0.00
2014-1-9,23.0,17.5,15.0,-99.9,-99.9,-99.9,0,0,100,30.63,30.37,13,7,22,0.00
2014-1-10,39.0,31.4,20.0,-99.9,-99.9,-99.9,0,0,100,30.36,29.90,7,3,9,0.00
2014-1-11,50.0,42.6,34.0,-99.9,-99.9,-99.9,0,0,100,29.83,29.21,17,10,26,0.00
2014-1-12,37.0,35.4,34.0,-99.9,-99.9,-99.9,0,0,100,29.94,29.50,22,13,32,0.00
2014-1-13,50.0,44.1,35.0,-99.9,-99.9,-99.9,0,0,100,29.87,29.62,18,13,28,0.00
2014-1-14,44.0,37.2,31.0,-99.9,-99.9,-99.9,0,0,100,29.81,29.62,11,8,16,0.00
2014-1-15,37.0,32.0,27.0,-99.9,-99.9,-99.9,0,0,100,29.98,29.73,23,13,34,0.00
2014-1-16,32.0,28.6,26.0,-99.9,-99.9,-99.9,0,0,100,29.95,29.82,15,8,22,0.00
2014-1-17,37.0,32.5,29.0,-99.9,-99.9,-99.9,0,0,100,29.82,29.73,18,9,28,0.00
2014-1-18,33.0,22.6,18.0,-99.9,-99.9,-99.9,0,0,100,29.90,29.79,16,12,25,0.00
2014-1-19,29.0,24.5,20.0,-99.9,-99.9,-99.9,0,0,100,29.83,29.47,26,13,43,0.00
2014-1-20,31.0,22.8,14.0,-99.9,-99.9,-99.9,0,0,100,30.04,29.50,21,14,25,0.00
2014-1-21,13.0,8.0,6.0,-99.9,-99.9,-99.9,0,0,100,30.15,30.04,16,10,22,0.00
2014-1-22,10.0,8.3,7.0,-99.9,-99.9,-99.9,0,0,100,30.13,30.03,15,10,17,0.00
2014-1-23,13.0,10.8,9.0,-99.9,-99.9,-99.9,0,0,100,30.37,30.03,22,12,26,0.00
2014-1-24,19.0,10.6,4.0,-99.9,-99.9,-99.9,0,0,100,30.36,29.67,26,16,40,0.00
2014-1-25,26.0,20.6,14.0,-99.9,-99.9,-99.9,0,0,100,29.63,29.21,30,21,39,0.00
2014-1-26,29.0,14.6,6.0,-99.9,-99.9,-99.9,0,0,100,29.76,29.44,22,12,34,0.00
2014-1-27,29.0,17.8,9.0,-99.9,-99.9,-99.9,0,0,100,30.11,29.31,34,20,44,0.00
2014-1-28,9.0,6.0,-1.0,-99.9,-99.9,-99.9,0,0,100,30.32,30.14,23,14,32,0.00
2014-1-29,17.0,10.0,4.0,-99.9,-99.9,-99.9,0,0,100,30.21,30.03,20,14,32,0.00
2014-1-30,32.0,21.8,13.0,-99.9,-99.9,-99.9,0,0,100,30.22,29.82,18,12,30,0.00
2014-1-31,35.0,32.8,30.0,-99.9,-99.9,-99.9,0,0,100,30.15,29.85,17,10,31,0.00
2014-2-1,40.0,32.8,29.0,-99.9,-99.9,-99.9,0,0,100,30.17,29.82,13,5,17,0.00
2014-2-2,37.0,30.9,26.0,-99.9,-99.9,-99.9,0,0,100,30.22,29.84,17,12,21,0.00
2014-2-3,26.0,24.0,20.0,-99.9,-99.9,-99.9,0,0,100,30.37,30.22,10,6,15,0.00
2014-2-4,25.0,21.1,16.0,-99.9,-99.9,-99.9,0,0,100,30.48,30.26,8,4,11,0.00
2014-2-5,26.0,23.3,19.0,-99.9,-99.9,-99.9,0,0,100,30.24,29.81,25,12,32,0.00
2014-2-6,21.0,17.7,11.0,-99.9,-99.9,-99.9,0,0,100,30.33,30.18,16,11,26,0.00
2014-2-7,15.0,11.9,10.0,-99.9,-99.9,-99.9,0,0,100,30.29,30.20,20,14,30,0.00
2014-2-8,18.0,13.3,9.0,-99.9,-99.9,-99.9,0,0,100,30.31,30.21,10,8,16,0.00
2014-2-9,22.0,17.4,14.0,-99.9,-99.9,-99.9,0,0,100,30.19,29.97,17,7,21,0.00
2014-2-10,21.0,17.1,12.0,-99.9,-99.9,-99.9,0,0,100,30.31,30.10,23,13,30,0.00
2014-2-11,17.0,15.1,9.0,-99.9,-99.9,-99.9,0,0,100,30.50,30.31,18,12,23,0.00
2014-2-12,27.0,14.7,5.0,-99.9,-99.9,-99.9,0,0,100,30.50,30.15,9,5,13,0.00
2014-2-13,28.0,21.3,13.0,-99.9,-99.9,-99.9,0,0,100,30.14,29.57,10,5,16,0.00
2014-2-14,30.0,27.4,25.0,-99.9,-99.9,-99.9,0,0,100,29.71,29.45,15,8,22,0.00
2014-2-15,27.0,24.4,18.0,-99.9,-99.9,-99.9,0,0,100,30.02,29.72,22,13,26,0.00
2014-2-16,21.0,16.8,11.0,-99.9,-99.9,-99.9,0,0,100,30.30,30.00,25,13,28,0.00
2014-2-17,24.0,17.9,4.0,-99.9,-99.9,-99.9,0,0,100,30.45,29.83,14,6,22,0.00
2014-2-18,31.0,27.4,24.0,-99.9,-99.9,-99.9,0,0,100,30.00,29.70,24,11,32,0.00
2014-2-19,44.0,38.0,25.0,-99.9,-99.9,-99.9,0,0,100,30.04,29.58,20,10,25,0.00
2014-2-20,39.0,33.7,31.0,-99.9,-99.9,-99.9,0,0,100,30.12,29.72,11,6,16,0.00
2014-2-21,43.0,38.2,35.0,-99.9,-99.9,-99.9,0,0,100,29.72,29.48,25,14,47,0.00
2014-2-22,40.0,37.1,35.0,-99.9,-99.9,-99.9,0,0,100,29.92,29.71,23,17,40,0.00
2014-2-23,36.0,32.1,28.0,-99.9,-99.9,-99.9,0,0,100,29.98,29.91,26,12,32,0.00
2014-2-24,27.0,22.8,21.0,-99.9,-99.9,-99.9,0,0,100,30.09,29.94,30,22,40,0.00
2014-2-25,22.0,20.0,18.0,-99.9,-99.9,-99.9,0,0,100,30.07,29.87,21,15,31,0.00
2014-2-26,22.0,13.8,11.0,-99.9,-99.9,-99.9,0,0,100,30.01,29.70,30,20,40,0.00
2014-2-27,17.0,13.9,11.0,-99.9,-99.9,-99.9,0,0,100,30.14,29.50,36,22,46,0.00
2014-2-28,15.0,10.9,6.0,-99.9,-99.9,-99.9,0,0,100,30.41,30.15,25,9,32,0.00
2014-3-1,33.0,23.9,13.0,-99.9,-99.9,-99.9,0,0,100,30.20,30.04,22,12,25,0.00
2014-3-2,19.0,15.6,13.0,-99.9,-99.9,-99.9,0,0,100,30.27,30.19,20,14,28,0.00
2014-3-3,12.0,8.5,4.0,-99.9,-99.9,-99.9,0,0,100,30.42,30.25,23,11,31,0.00
2014-3-4,16.0,9.5,1.0,-99.9,-99.9,-99.9,0,0,100,30.39,30.24,10,8,16,0.00
2014-3-5,21.0,19.0,16.0,-99.9,-99.9,-99.9,0,0,100,30.57,30.25,11,7,15,0.00
2014-3-6,27.0,17.6,10.0,-99.9,-99.9,-99.9,0,0,100,30.61,30.26,10,6,16,0.00
2014-3-7,36.0,27.0,16.0,-99.9,-99.9,-99.9,0,0,100,30.23,29.88,11,6,15,0.00
2014-3-8,35.0,32.2,27.0,-99.9,-99.9,-99.9,0,0,100,30.07,29.85,23,10,26,0.00
2014-3-9,33.0,26.2,18.0,-99.9,-99.9,-99.9,0,0,100,30.17,29.79,17,13,28,0.00
2014-3-10,47.0,39.9,34.0,-99.9,-99.9,-99.9,0,0,100,29.80,29.49,16,11,25,0.00
2014-3-11,47.0,42.1,37.0,-99.9,-99.9,-99.9,0,0,100,29.71,29.54,9,5,13,0.00
2014-3-12,40.0,27.8,17.0,-99.9,-99.9,-99.9,0,0,100,29.80,29.48,30,14,39,0.00
2014-3-13,19.0,14.7,10.0,-99.9,-99.9,-99.9,0,0,100,30.07,29.80,25,17,32,0.00
2014-3-14,53.0,38.6,20.0,-99.9,-99.9,-99.9,0,0,100,30.03,29.54,20,12,36,0.00
2014-3-15,45.0,35.1,25.0,-99.9,-99.9,-99.9,0,0,100,30.18,29.57,31,20,38,0.00
2014-3-16,24.0,17.9,13.0,-99.9,-99.9,-99.9,0,0,100,30.42,30.19,22,12,25,0.00
2014-3-17,24.0,19.2,14.0,-99.9,-99.9,-99.9,0,0,100,30.26,30.04,11,7,20,0.00
2014-3-18,33.0,28.3,20.0,-99.9,-99.9,-99.9,0,0,100,30.13,30.06,13,6,21,0.00
2014-3-19,49.0,39.8,31.0,-99.9,-99.9,-99.9,0,0,100,30.05,29.61,18,8,26,0.00
2014-3-20,43.0,36.3,35.0,-99.9,-99.9,-99.9,0,0,100,29.94,29.62,23,18,33,0.00
2014-3-21,38.0,31.5,29.0,-99.9,-99.9,-99.9,0,0,100,30.11,29.90,23,11,29,0.00
2014-3-22,36.0,33.7,31.0,-99.9,-99.9,-99.9,0,0,100,30.10,29.55,24,13,33,0.00
2014-3-23,29.0,22.4,19.0,-99.9,-99.9,-99.9,0,0,100,30.29,30.12,23,15,29,0.00
2014-3-24,26.0,21.8,20.0,-99.9,-99.9,-99.9,0,0,100,30.30,30.10,22,13,28,0.00
2014-3-25,34.0,26.9,21.0,-99.9,-99.9,-99.9,0,0,100,30.08,29.87,29,13,32,0.00
2014-3-26,25.0,20.5,18.0,-99.9,-99.9,-99.9,0,0,100,30.29,30.02,25,19,32,0.00
2014-3-27,45.0,30.9,18.0,-99.9,-99.9,-99.9,0,0,100,30.30,29.87,14,9,20,0.00
2014-3-28,54.0,45.2,38.0,-99.9,-99.9,-99.9,0,0,100,30.17,29.66,24,15,39,0.00
2014-3-29,38.0,34.6,33.0,-99.9,-99.9,-99.9,0,0,100,30.22,30.02,14,6,22,0.00
2014-3-30,38.0,34.8,32.0,-99.9,-99.9,-99.9,0,0,100,30.08,29.99,21,8,26,0.00
2014-3-31,47.0,35.8,29.0,-99.9,-99.9,-99.9,0,0,100,30.23,30.09,7,3,7,0.00
2014-4-1,50.0,41.1,34.0,-99.9,-99.9,-99.9,0,0,100,30.15,29.73,15,7,18,0.00
2014-4-2,41.0,37.1,35.0,-99.9,-99.9,-99.9,0,0,100,30.21,29.96,18,10,26,0.00
2014-4-3,37.0,34.3,30.0,-99.9,-99.9,-99.9,0,0,100,30.24,30.03,13,7,22,0.00
2014-4-4,52.0,41.2,35.0,-99.9,-99.9,-99.9,0,0,100,30.00,29.41,23,9,38,0.00
2014-4-5,41.0,36.0,33.0,-99.9,-99.9,-99.9,0,0,100,30.15,29.62,30,20,40,0.00
2014-4-6,48.0,37.9,30.0,-99.9,-99.9,-99.9,0,0,100,30.21,30.10,8,5,10,0.00
2014-4-7,45.0,36.5,31.0,-99.9,-99.9,-99.9,0,0,100,30.09,29.53,17,6,25,0.00
2014-4-8,50.0,40.7,35.0,-99.9,-99.9,-99.9,0,0,100,29.71,29.27,18,10,25,0.00
2014-4-9,48.0,39.6,33.0,-99.9,-99.9,-99.9,0,0,100,29.98,29.72,16,6,21,0.00
2014-4-10,67.0,52.5,38.0,-99.9,-99.9,-99.9,0,0,100,29.97,29.66,26,16,40,0.00
2014-4-11,55.0,47.2,38.0,-99.9,-99.9,-99.9,0,0,100,30.05,29.85,10,5,16,0.00
2014-4-12,56.0,47.2,37.0,-99.9,-99.9,-99.9,0,0,100,30.17,30.01,9,5,17,0.00
2014-4-13,69.0,35.6,38.0,-99.9,-99.9,-99.9,0,0,100,30.01,29.76,15,9,26,0.00
2014-4-14,73.0,60.1,40.0,-99.9,-99.9,-99.9,0,0,100,29.75,29.56,24,15,37,0.00
2014-4-15,39.0,32.9,28.0,-99.9,-99.9,-99.9,0,0,100,30.17,29.63,31,20,38,0.00
2014-4-16,37.0,31.1,27.0,-99.9,-99.9,-99.9,0,0,100,30.53,30.19,29,13,36,0.00
2014-4-17,44.0,36.6,31.0,-99.9,-99.9,-99.9,0,0,100,30.54,30.33,13,7,21,0.00
2014-4-18,49.0,44.0,38.0,-99.9,-99.9,-99.9,0,0,100,30.34,30.22,15,6,20,0.00
2014-4-19,50.0,39.5,35.0,-99.9,-99.9,-99.9,0,0,100,30.48,30.30,13,6,14,0.00
2014-4-20,52.0,41.2,35.0,-99.9,-99.9,-99.9,0,0,100,30.41,30.16,9,4,14,0.00
2014-4-21,71.0,51.6,37.0,-99.9,-99.9,-99.9,0,0,100,30.14,29.72,13,4,16,0.00
2014-4-22,60.0,48.5,41.0,-99.9,-99.9,-99.9,0,0,100,29.72,29.56,26,12,33,0.00
2014-4-23,41.0,38.9,36.0,-99.9,-99.9,-99.9,0,0,100,30.06,29.72,18,12,25,0.00
2014-4-24,53.0,43.1,36.0,-99.9,-99.9,-99.9,0,0,100,30.18,30.04,16,4,18,0.00
2014-4-25,52.0,43.2,36.0,-99.9,-99.9,-99.9,0,0,100,30.01,29.62,18,7,24,0.00
2014-4-26,44.0,40.0,38.0,-99.9,-99.9,-99.9,0,0,100,30.04,29.74,16,7,22,0.00
2014-4-27,48.0,40.0,37.0,-99.9,-99.9,-99.9,0,0,100,30.20,30.05,11,6,13,0.00
2014-4-28,52.0,43.2,36.0,-99.9,-99.9,-99.9,0,0,100,30.19,29.97,13,5,21,0.00
2014-4-29,56.0,43.8,42.0,-99.9,-99.9,-99.9,0,0,100,30.02,29.85,26,11,31,0.00
2014-4-30,51.0,45.0,40.0,-99.9,-99.9,-99.9,0,0,100,30.06,29.78,9,4,15,0.00
2014-5-1,57.0,48.5,38.0,-99.9,-99.9,-99.9,0,0,100,29.77,29.71,23,9,32,0.00
2014-5-2,53.0,50.0,46.0,-99.9,-99.9,-99.9,0,0,100,29.80,29.68,17,10,26,0.00
2014-5-3,56.0,50.3,48.0,-99.9,-99.9,-99.9,0,0,100,29.79,29.62,21,11,28,0.00
2014-5-4,49.0,45.9,42.0,-99.9,-99.9,-99.9,0,0,100,29.99,29.72,23,16,29,0.00
2014-5-5,55.0,46.5,41.0,-99.9,-99.9,-99.9,0,0,100,30.08,29.95,11,6,15,0.00
2014-5-6,58.0,47.0,42.0,-99.9,-99.9,-99.9,0,0,100,30.14,29.96,8,3,9,0.00
2014-5-13,58.0,55.5,54.0,-99.9,-99.9,-99.9,0,0,100,30.02,30.01,7,6,10,0.00
2014-5-14,65.0,58.5,52.0,-99.9,-99.9,-99.9,0,0,100,30.12,30.00,11,5,20,0.00
2014-5-15,73.0,54.6,47.0,-99.9,-99.9,-99.9,0,0,100,30.00,29.80,13,6,21,0.00
2014-5-16,53.0,48.9,45.0,-99.9,-99.9,-99.9,0,0,100,30.00,29.87,17,9,21,0.00
2014-5-17,52.0,45.9,42.0,-99.9,-99.9,-99.9,0,0,100,30.16,29.98,11,7,14,0.00
2014-5-18,59.0,51.4,43.0,-99.9,-99.9,-99.9,0,0,100,30.27,30.18,14,6,23,0.00
2014-5-19,67.0,56.1,48.0,-99.9,-99.9,-99.9,0,0,100,30.24,30.15,11,7,17,0.00
2014-5-20,67.0,54.5,50.0,-99.9,-99.9,-99.9,0,0,100,30.18,29.98,13,4,14,0.00
2014-5-21,63.0,55.3,48.0,-99.9,-99.9,-99.9,0,0,100,29.96,29.82,14,5,22,0.00
2014-5-22,60.0,53.4,48.0,-99.9,-99.9,-99.9,0,0,100,29.95,29.78,21,10,28,0.00
2014-5-23,60.0,54.2,49.0,-99.9,-99.9,-99.9,0,0,100,30.07,29.92,13,9,20,0.00
2014-5-24,72.0,57.1,51.0,-99.9,-99.9,-99.9,0,0,100,30.15,30.06,13,7,14,0.00
2014-5-25,76.0,63.4,53.0,-99.9,-99.9,-99.9,0,0,100,30.16,30.04,14,7,22,0.00
2014-5-26,80.0,71.1,60.0,-99.9,-99.9,-99.9,0,0,100,30.05,29.90,16,9,21,0.00
2014-5-27,80.0,71.9,62.0,-99.9,-99.9,-99.9,0,0,100,29.89,29.79,15,8,24,0.00
2014-5-28,64.0,59.0,57.0,-99.9,-99.9,-99.9,0,0,100,30.15,29.84,9,5,17,0.00
2014-5-29,60.0,54.3,49.0,-99.9,-99.9,-99.9,0,0,100,30.17,30.11,8,4,13,0.00
2014-5-30,72.0,58.8,49.0,-99.9,-99.9,-99.9,0,0,100,30.19,30.12,8,2,9,0.00
2014-5-31,67.0,59.1,53.0,-99.9,-99.9,-99.9,0,0,100,30.30,30.17,7,3,10,0.00
2014-6-1,75.0,61.4,51.0,-99.9,-99.9,-99.9,0,0,100,30.27,30.07,10,4,14,0.00
2014-6-2,81.0,74.0,58.0,-99.9,-99.9,-99.9,0,0,100,30.07,29.89,16,12,26,0.00
2014-6-3,80.0,70.9,61.0,-99.9,-99.9,-99.9,0,0,100,29.90,29.73,18,12,33,0.00
2014-6-4,70.0,63.1,57.0,-99.9,-99.9,-99.9,0,0,100,29.91,29.78,13,8,16,0.00
2014-6-5,63.0,57.7,53.0,-99.9,-99.9,-99.9,0,0,100,29.91,29.76,13,6,16,0.00
2014-6-6,74.0,62.2,52.0,-99.9,-99.9,-99.9,0,0,100,30.01,29.93,13,6,17,0.00
2014-6-7,76.0,62.9,55.0,-99.9,-99.9,-99.9,0,0,100,30.10,29.95,11,4,13,0.00
2014-6-8,65.0,62.0,54.0,-99.9,-99.9,-99.9,0,0,100,29.94,29.83,18,6,20,0.00
2014-6-9,72.0,63.3,60.0,-99.9,-99.9,-99.9,0,0,100,30.00,29.92,8,3,10,0.00
2014-6-10,69.0,64.2,62.0,-99.9,-99.9,-99.9,0,0,100,29.98,29.93,8,3,14,0.00
2014-6-11,70.0,64.9,60.0,-99.9,-99.9,-99.9,0,0,100,29.95,29.80,9,3,20,0.00
2014-6-12,78.0,71.0,65.0,-99.9,-99.9,-99.9,0,0,100,29.82,29.75,16,9,21,0.00
2014-6-13,74.0,67.7,60.0,-99.9,-99.9,-99.9,0,0,100,29.91,29.72,21,10,24,0.00
2014-6-14,65.0,58.5,54.0,-99.9,-99.9,-99.9,0,0,100,30.13,29.92,20,11,25,0.00
2014-6-15,65.0,60.6,55.0,-99.9,-99.9,-99.9,0,0,100,30.23,30.09,8,3,14,0.00
2014-6-16,70.0,62.2,57.0,-99.9,-99.9,-99.9,0,0,100,30.11,29.96,8,3,15,0.00
2014-6-17,87.0,58.7,62.0,-99.9,-99.9,-99.9,0,0,100,30.04,29.73,28,10,48,0.00
2014-6-18,73.0,67.8,63.0,-99.9,-99.9,-99.9,0,0,100,30.04,29.84,16,7,22,0.00
2014-6-19,77.0,66.4,62.0,-99.9,-99.9,-99.9,0,0,100,30.15,30.03,8,4,16,0.00
2014-6-20,67.0,63.0,57.0,-99.9,-99.9,-99.9,0,0,100,30.14,29.99,7,3,11,0.00
2014-6-21,71.0,62.7,58.0,-99.9,-99.9,-99.9,0,0,100,30.00,29.93,7,3,13,0.00
2014-6-22,74.0,66.4,58.0,-99.9,-99.9,-99.9,0,0,100,30.00,29.95,6,3,10,0.00
2014-6-23,70.0,66.2,61.0,-99.9,-99.9,-99.9,0,0,100,30.01,29.92,9,4,15,0.00
2014-6-24,84.0,64.9,64.0,-99.9,-99.9,-99.9,0,0,100,29.94,29.83,16,7,25,0.00
2014-6-25,71.0,68.6,65.0,-99.9,-99.9,-99.9,0,0,100,29.94,29.86,9,4,14,0.00
2014-6-26,78.0,69.1,66.0,-99.9,-99.9,-99.9,0,0,100,30.04,29.93,7,3,8,0.00
2014-6-27,77.0,70.1,63.0,-99.9,-99.9,-99.9,0,0,100,30.15,30.05,8,4,13,0.00
2014-6-28,77.0,71.0,67.0,-99.9,-99.9,-99.9,0,0,100,30.20,30.09,9,4,16,0.00
2014-6-29,85.0,77.4,71.0,-99.9,-99.9,-99.9,0,0,100,30.12,29.96,15,10,20,0.00
2014-6-30,87.0,79.5,72.0,-99.9,-99.9,-99.9,0,0,100,29.99,29.81,16,9,25,0.00
2014-7-1,85.0,80.6,76.0,-99.9,-99.9,-99.9,0,0,100,29.81,29.60,21,13,34,0.00
2014-7-2,84.0,71.9,72.0,-99.9,-99.9,-99.9,0,0,100,29.89,29.73,17,10,26,0.00
2014-7-3,72.0,68.1,64.0,-99.9,-99.9,-99.9,0,0,100,30.05,29.91,20,6,24,0.00
2014-7-4,71.0,65.8,61.0,-99.9,-99.9,-99.9,0,0,100,30.22,30.07,21,12,24,0.00
2014-7-5,77.0,68.1,58.0,-99.9,-99.9,-99.9,0,0,100,30.25,30.09,15,9,25,0.00
2014-7-6,79.0,73.5,64.0,-99.9,-99.9,-99.9,0,0,100,30.08,29.81,18,12,31,0.00
2014-7-7,80.0,73.9,68.0,-99.9,-99.9,-99.9,0,0,100,29.80,29.62,21,12,30,0.00
2014-7-8,76.0,72.1,68.0,-99.9,-99.9,-99.9,0,0,100,29.69,29.51,21,10,33,0.00
2014-7-9,70.0,66.6,63.0,-99.9,-99.9,-99.9,0,0,100,30.01,29.71,15,9,20,0.00
2014-7-10,71.0,65.9,59.0,-99.9,0.0,200.0,0,0,100,30.20,30.03,14,4,16,0.00
2014-7-11,76.0,68.1,61.0,-99.9,0.0,200.0,0,0,100,30.25,30.18,7,4,10,0.00
2014-7-12,82.0,70.7,65.0,-99.9,0.0,200.0,0,0,100,30.18,29.98,9,4,13,0.00
2014-7-13,82.0,76.9,73.0,-99.9,0.0,200.0,0,0,100,29.96,29.76,16,11,30,0.00
2014-7-14,71.0,68.5,65.0,-99.9,0.0,200.0,0,0,100,29.90,29.80,9,4,13,0.00
2014-7-15,77.0,69.2,65.0,-99.9,0.0,200.0,0,0,100,29.79,29.66,14,7,25,0.00
2014-7-16,68.0,63.2,58.0,-99.9,0.0,200.0,0,0,100,29.93,29.79,16,7,20,0.00
2014-7-17,72.0,65.8,60.0,-99.9,0.0,200.0,0,0,100,30.12,29.95,11,7,14,0.00
2014-7-18,75.0,67.0,60.0,-99.9,0.0,200.0,0,0,100,30.25,30.13,9,4,10,0.00
2014-7-19,70.0,66.2,63.0,-99.9,0.0,200.0,0,0,100,30.20,30.10,11,3,13,0.00
2014-7-20,76.0,70.3,67.0,-99.9,0.0,200.0,0,0,100,30.09,30.06,11,7,15,0.00
2014-7-21,84.0,72.2,65.0,-99.9,0.0,200.0,0,0,100,30.15,30.07,6,3,8,0.00
2014-7-22,85.0,75.4,69.0,-99.9,0.0,200.0,0,0,100,30.12,29.94,10,6,17,0.00
2014-7-23,78.0,73.0,68.0,-99.9,0.0,200.0,0,0,100,30.00,29.83,23,12,28,0.00
2014-7-24,77.0,67.4,64.0,-99.9,0.0,200.0,0,0,100,30.08,29.99,16,5,21,0.00
2014-7-25,75.0,67.1,60.0,-99.9,0.0,200.0,0,0,100,30.07,29.96,14,7,17,0.00
2014-7-26,78.0,68.8,65.0,-99.9,0.0,200.0,0,0,100,29.96,29.77,11,6,17,0.00
2014-7-27,80.0,74.2,67.0,-99.9,0.0,200.0,0,0,100,29.75,29.57,24,7,33,0.00
2014-7-28,69.0,65.7,62.0,-99.9,0.0,200.0,0,0,100,29.87,29.58,25,16,32,0.00
2014-7-29,70.0,65.4,63.0,-99.9,0.0,200.0,0,0,100,29.96,29.86,16,10,21,0.00
2014-7-30,69.0,64.9,62.0,-99.9,0.0,200.0,0,0,100,29.98,29.93,14,7,15,0.00
2014-7-31,75.0,65.8,61.0,-99.9,0.0,200.0,0,0,100,30.06,29.97,14,5,20,0.00
2014-8-1,81.0,71.3,66.0,-99.9,0.0,200.0,0,0,100,30.12,30.05,11,7,17,0.00
2014-8-2,75.0,70.8,67.0,-99.9,0.0,200.0,0,0,100,30.15,30.07,7,3,8,0.00
2014-8-3,76.0,70.5,68.0,-99.9,0.0,200.0,0,0,100,30.12,30.05,8,3,10,0.00
2014-8-4,81.0,70.6,67.0,-99.9,0.0,200.0,0,0,100,30.08,30.02,20,8,29,0.00
2014-8-5,73.0,68.1,65.0,-99.9,0.0,200.0,0,0,100,30.07,30.00,7,2,9,0.00
2014-8-6,75.0,69.7,65.0,-99.9,0.0,200.0,0,0,100,30.02,29.97,5,2,9,0.00
2014-8-7,75.0,70.4,65.0,-99.9,0.0,200.0,0,0,100,30.09,30.00,14,7,16,0.00
2014-8-8,76.0,69.1,62.0,-99.9,0.0,200.0,0,0,100,30.17,30.10,10,3,15,0.00
2014-8-9,76.0,68.3,62.0,-99.9,0.0,200.0,0,0,100,30.17,30.12,7,4,10,0.00
2014-8-10,77.0,70.2,62.0,-99.9,0.0,200.0,0,0,100,30.16,30.06,9,4,15,0.00
2014-8-11,83.0,73.8,66.0,-99.9,0.0,200.0,0,0,100,30.07,29.84,14,7,23,0.00
2014-8-12,78.0,72.6,68.0,-99.9,0.0,200.0,0,0,100,29.82,29.69,24,12,32,0.00
2014-8-13,71.0,67.1,64.0,-99.9,0.0,200.0,0,0,100,29.90,29.71,26,15,33,0.00
2014-8-14,65.0,62.0,59.0,-99.9,0.0,200.0,0,0,100,29.92,29.87,29,18,34,0.00
2014-8-15,70.0,64.0,58.0,-99.9,0.0,200.0,0,0,100,29.95,29.91,24,13,29,0.00
2014-8-16,71.0,64.6,60.0,-99.9,0.0,200.0,0,0,100,29.93,29.81,15,10,26,0.00
2014-8-17,72.0,66.7,63.0,-99.9,0.0,200.0,0,0,100,30.00,29.84,17,8,18,0.00
2014-8-18,68.0,65.2,60.0,-99.9,0.0,200.0,0,0,100,29.99,29.89,13,5,16,0.00
2014-8-19,69.0,64.8,58.0,-99.9,0.0,200.0,0,0,100,29.89,29.83,9,4,15,0.00
2014-8-20,76.0,70.7,67.0,-99.9,0.0,200.0,0,0,100,29.91,29.81,9,4,13,0.00
2014-8-21,78.0,71.7,69.0,-99.9,0.0,200.0,0,0,100,29.97,29.91,13,5,15,0.00
2014-8-22,71.0,68.2,66.0,-99.9,0.0,200.0,0,0,100,30.01,29.96,9,3,11,0.00
2014-8-23,68.0,64.6,65.0,-99.9,0.0,200.0,0,0,100,30.11,30.00,8,5,16,0.00
2014-8-24,70.0,66.3,63.0,-99.9,0.0,200.0,0,0,100,30.18,30.11,9,5,16,0.00
2014-8-25,79.0,70.8,65.0,-99.9,0.0,200.0,0,0,100,30.18,30.08,9,5,13,0.00
2014-8-26,84.0,76.6,69.0,-99.9,0.0,200.0,0,0,100,30.09,29.98,16,10,25,0.00
2014-8-27,78.0,71.2,68.0,-99.9,0.0,200.0,0,0,100,30.07,29.98,16,8,21,0.00
2014-8-28,71.0,66.3,63.0,-99.9,0.0,200.0,0,0,100,30.14,30.03,21,12,26,0.00
2014-8-29,72.0,65.6,59.0,-99.9,0.0,200.0,0,0,100,30.19,30.08,9,4,16,0.00
2014-8-30,87.0,75.2,65.0,-99.9,0.0,200.0,0,0,100,30.08,29.90,16,10,23,0.00
2014-8-31,80.0,77.5,72.0,-99.9,0.0,200.0,0,0,100,29.95,29.90,11,10,21,0.00
2014-9-1,84.0,77.0,71.0,-99.9,0.0,200.0,0,0,100,29.96,29.80,16,8,20,0.00
2014-9-2,78.0,72.4,68.0,-99.9,0.0,200.0,0,0,100,29.89,29.78,15,8,23,0.00
2014-9-3,80.0,70.1,63.0,-99.9,0.0,200.0,0,0,100,30.07,29.91,10,6,15,0.00
2014-9-4,85.0,75.6,67.0,-99.9,0.0,200.0,0,0,100,30.09,29.99,13,7,18,0.00
2014-9-5,88.0,77.6,69.0,-99.9,0.0,200.0,0,0,100,30.06,29.86,29,11,43,0.00
2014-9-6,71.0,67.9,65.0,-99.9,0.0,200.0,0,0,100,30.08,29.83,21,11,28,0.00
2014-9-7,75.0,64.1,57.0,-99.9,0.0,200.0,0,0,100,30.22,30.08,16,6,20,0.00
2014-9-8,72.0,65.7,59.0,-99.9,0.0,200.0,0,0,100,30.27,30.13,10,6,17,0.00
2014-9-9,72.0,69.0,66.0,-99.9,0.0,200.0,0,0,100,30.15,30.03,17,8,22,0.00
2014-9-10,78.0,73.0,68.0,-99.9,0.0,200.0,0,0,100,30.04,29.60,28,13,38,0.00
2014-9-11,76.0,65.0,59.0,-99.9,0.0,200.0,0,0,100,30.13,29.56,26,18,36,0.00
2014-9-12,60.0,55.9,52.0,-99.9,0.0,200.0,0,0,100,30.29,30.15,14,5,21,0.00
2014-9-13,59.0,53.2,50.0,-99.9,0.0,200.0,0,0,100,30.30,30.03,20,10,22,0.00
2014-9-14,60.0,55.4,49.0,-99.9,0.0,200.0,0,0,100,30.35,30.21,11,5,15,0.00
2014-9-15,65.0,59.2,53.0,-99.9,0.0,200.0,0,0,100,30.21,30.05,10,6,21,0.00
2014-9-16,65.0,60.0,56.0,-99.9,0.0,200.0,0,0,100,30.10,30.02,15,9,20,0.00
2014-9-17,67.0,59.5,53.0,-99.9,0.0,200.0,0,0,100,30.05,29.95,10,6,14,0.00
2014-9-18,62.0,55.4,52.0,-99.9,0.0,200.0,0,0,100,30.21,29.97,15,4,22,0.00
2014-9-19,65.0,53.9,45.0,-99.9,0.0,200.0,0,0,100,30.33,30.09,13,6,15,0.00
2014-9-20,77.0,68.8,59.0,-99.9,0.0,200.0,0,0,100,30.07,29.79,24,13,36,0.00
2014-9-21,76.0,69.3,59.0,-99.9,0.0,200.0,0,0,100,29.76,29.55,29,13,34,0.00
2014-9-22,58.0,55.4,52.0,-99.9,0.0,200.0,0,0,100,30.22,29.76,31,18,38,0.00
2014-9-23,70.0,59.1,49.0,-99.9,0.0,200.0,0,0,100,30.38,30.22,15,8,21,0.00
2014-9-24,69.0,62.0,56.0,-99.9,0.0,200.0,0,0,100,30.51,30.38,8,5,14,0.00
2014-9-25,69.0,63.0,56.0,-99.9,0.0,200.0,0,0,100,30.40,30.29,7,3,10,0.00
2014-9-26,75.0,61.7,55.0,-99.9,0.0,200.0,0,0,100,30.33,30.26,7,3,8,0.00
2014-9-27,74.0,62.5,57.0,-99.9,0.0,200.0,0,0,100,30.32,30.20,5,3,6,0.00
2014-9-28,70.0,63.3,58.0,-99.9,0.0,200.0,0,0,100,30.20,30.04,8,4,10,0.00
2014-9-29,72.0,65.3,60.0,-99.9,0.0,200.0,0,0,100,30.03,29.88,8,4,10,0.00
2014-9-30,68.0,63.4,60.0,-99.9,0.0,200.0,0,0,100,29.99,29.86,9,6,16,0.00
2014-10-1,62.0,60.9,60.0,-99.9,0.0,200.0,0,0,100,30.08,29.99,9,6,14,0.00
2014-10-2,68.0,61.6,55.0,-99.9,0.0,200.0,0,0,100,30.10,29.97,11,3,13,0.00
2014-10-3,76.0,67.3,62.0,-99.9,0.0,200.0,0,0,100,29.95,29.55,29,15,36,0.00
2014-10-4,62.0,53.0,46.0,-99.9,0.0,200.0,0,0,100,29.68,29.51,16,10,26,0.00
2014-10-5,55.0,49.1,42.0,-99.9,0.0,200.0,0,0,100,29.82,29.65,17,10,29,0.00
2014-10-6,65.0,58.1,52.0,-99.9,0.0,200.0,0,0,100,29.81,29.72,16,11,24,0.00
2014-10-7,63.0,58.9,55.0,-99.9,0.0,200.0,0,0,100,29.83,29.69,20,9,29,0.00
2014-10-8,58.0,55.2,52.0,-99.9,0.0,200.0,0,0,100,29.92,29.65,30,14,40,0.00
2014-10-9,58.0,53.2,44.0,-99.9,0.0,200.0,0,0,100,30.06,29.92,25,17,31,0.00
2014-10-10,56.0,51.8,47.0,-99.9,0.0,200.0,0,0,100,30.13,30.06,16,10,18,0.00
2014-10-11,57.0,51.4,45.0,-99.9,0.0,200.0,0,0,100,30.22,30.11,15,8,18,0.00
2014-10-12,56.0,49.7,43.0,-99.9,0.0,200.0,0,0,100,30.28,30.12,9,6,17,0.00
2014-10-13,68.0,59.8,48.0,-99.9,0.0,200.0,0,0,100,30.10,29.97,11,5,16,0.00
2014-10-14,79.0,72.7,66.0,-99.9,0.0,200.0,0,0,100,29.96,29.75,26,17,34,0.00
2014-10-15,72.0,62.8,58.0,-99.9,0.0,200.0,0,0,100,29.86,29.73,14,6,22,0.00
2014-10-16,66.0,60.2,57.0,-99.9,0.0,200.0,0,0,100,29.77,29.61,14,6,18,0.00
2014-10-17,63.0,59.8,56.0,-99.9,0.0,200.0,0,0,100,29.64,29.50,14,9,29,0.00
2014-10-18,62.0,52.4,46.0,-99.9,0.0,200.0,0,0,100,29.96,29.50,28,18,31,0.00
2014-10-19,48.0,44.5,42.0,-99.9,0.0,200.0,0,0,100,30.13,29.97,22,13,33,0.00
2014-10-20,57.0,52.5,45.0,-99.9,0.0,200.0,0,0,100,29.99,29.79,15,8,21,0.00
2014-10-21,53.0,50.9,46.0,-99.9,0.0,200.0,0,0,100,30.13,29.77,13,8,21,0.00
2014-10-22,51.0,48.3,46.0,-99.9,0.0,200.0,0,0,100,30.26,30.13,13,5,18,0.00
2014-10-23,58.0,52.6,50.0,-99.9,0.0,200.0,0,0,100,30.20,30.04,20,13,23,0.00
2014-10-24,55.0,50.2,46.0,-99.9,0.0,200.0,0,0,100,30.05,29.94,17,11,20,0.00
2014-10-25,63.0,56.9,53.0,-99.9,0.0,200.0,0,0,100,29.92,29.61,22,10,29,0.00
2014-10-26,55.0,50.6,46.0,-99.9,0.0,200.0,0,0,100,29.92,29.65,22,14,28,0.00
2014-10-27,55.0,49.4,40.0,-99.9,0.0,200.0,0,0,100,30.03,29.80,8,4,15,0.00
2014-10-28,73.0,62.6,52.0,-99.9,0.0,200.0,0,0,100,29.82,29.70,20,10,37,0.00
2014-10-29,58.0,51.9,49.0,-99.9,0.0,200.0,0,0,100,29.98,29.82,21,11,24,0.00
2014-10-30,49.0,46.8,45.0,-99.9,0.0,200.0,0,0,100,30.10,29.98,21,10,24,0.00
2014-10-31,49.0,45.4,43.0,-99.9,0.0,200.0,0,0,100,30.01,29.89,7,3,8,0.00
2014-11-1,44.0,39.5,38.0,-99.9,0.0,200.0,0,0,100,30.21,29.99,24,16,33,0.00
2014-11-2,47.0,39.4,36.0,-99.9,0.0,200.0,0,0,100,30.32,30.21,22,15,31,0.00
2014-11-3,57.0,48.9,39.0,-99.9,0.0,200.0,0,0,100,30.20,30.04,18,9,24,0.00
2014-11-4,62.0,57.9,54.0,-99.9,0.0,200.0,0,0,100,30.05,29.86,18,13,30,0.00
2014-11-5,55.0,48.6,43.0,-99.9,0.0,200.0,0,0,100,30.11,29.90,23,10,31,0.00
2014-11-6,51.0,45.6,42.0,-99.9,0.0,200.0,0,0,100,30.05,29.74,9,6,14,0.00
2014-11-7,44.0,40.6,38.0,-99.9,0.0,200.0,0,0,100,30.01,29.77,28,19,31,0.00
2014-11-8,48.0,41.2,34.0,-99.9,0.0,200.0,0,0,100,29.98,29.68,18,11,24,0.00
2014-11-9,50.0,43.6,37.0,-99.9,0.0,200.0,0,0,100,29.93,29.80,25,11,29,0.00
2014-11-10,55.0,49.1,45.0,-99.9,0.0,200.0,0,0,100,30.04,29.83,10,5,15,0.00
2014-11-11,68.0,59.1,48.0,-99.9,0.0,200.0,0,0,100,29.84,29.68,16,9,25,0.00
2014-11-12,58.0,41.5,36.0,-99.9,0.0,200.0,0,0,100,30.16,29.72,34,16,39,0.00
2014-11-13,37.0,34.4,31.0,-99.9,0.0,200.0,0,0,100,30.13,30.05,20,10,24,0.00
2014-11-18,27.0,23.1,20.0,-99.9,0.0,200.0,0,0,100,29.98,29.67,26,20,0,0.00
2014-11-19,32.0,22.9,16.0,-99.9,0.0,200.0,0,0,100,30.08,29.71,18,11,0,0.00
2014-11-20,32.0,28.3,23.0,-99.9,0.0,200.0,0,0,100,29.98,29.73,29,18,0,0.00
2014-11-21,30.0,24.8,21.0,-99.9,0.0,200.0,0,0,100,30.44,30.01,22,10,0,0.00
2014-11-22,47.0,37.6,23.0,-99.9,0.0,200.0,0,0,100,30.36,29.95,17,10,0,0.00
2014-11-23,54.0,49.8,47.0,-99.9,0.0,200.0,0,0,100,30.01,29.60,16,9,0,0.00
2014-11-24,66.0,55.2,44.0,-99.9,0.0,200.0,0,0,100,29.64,29.20,28,20,0,0.00
2014-11-25,44.0,39.2,36.0,-99.9,0.0,200.0,0,0,100,30.20,29.67,28,16,0,0.00
2014-11-26,36.0,34.5,33.0,-99.9,0.0,200.0,0,0,100,30.22,30.07,10,3,0,0.00
2014-11-27,37.0,32.9,31.0,-99.9,0.0,200.0,0,0,100,30.13,30.04,24,8,0,0.00
2014-11-28,32.0,27.0,24.0,-99.9,0.0,200.0,0,0,100,30.27,30.14,29,14,0,0.00
2014-11-29,47.0,34.3,26.0,-99.9,0.0,200.0,0,0,100,30.19,29.81,13,8,0,0.00
2014-11-30,59.0,54.0,43.0,-99.9,0.0,200.0,0,0,100,29.90,29.74,18,13,0,0.00
2014-12-1,42.0,35.6,27.0,-99.9,0.0,200.0,0,0,100,30.64,29.95,28,20,0,0.00
2014-12-2,34.0,27.4,21.0,-99.9,0.0,200.0,0,0,100,30.64,30.06,9,3,0,0.00
2014-12-3,39.0,37.3,35.0,-99.9,0.0,200.0,0,0,100,30.18,29.95,24,13,0,0.00
2014-12-4,35.0,30.9,27.0,-99.9,0.0,200.0,0,0,100,30.47,30.20,26,9,0,0.00
2014-12-5,41.0,33.6,26.0,-99.9,0.0,200.0,0,0,100,30.47,30.21,10,3,5,0.00
2014-12-6,40.0,38.1,36.0,-99.9,0.0,200.0,0,0,100,30.51,30.19,20,10,29,0.00
2014-12-7,35.0,28.9,25.0,-99.9,0.0,200.0,0,0,100,30.76,30.53,20,8,26,0.00
2014-12-8,42.0,32.1,24.0,-99.9,0.0,200.0,0,0,100,30.60,30.17,17,6,29,0.00
2014-12-9,41.0,38.9,37.0,-99.9,0.0,200.0,0,0,100,30.16,30.08,16,4,21,0.00
2014-12-10,37.0,30.0,28.0,-99.9,0.0,200.0,0,0,100,30.10,29.84,24,19,31,0.00
2014-12-11,31.0,27.4,27.0,-99.9,0.0,200.0,0,0,100,29.93,29.77,24,20,29,0.00
2014-12-12,39.0,33.6,30.0,-99.9,0.0,200.0,0,0,100,30.13,29.95,18,12,24,0.00
2014-12-13,37.0,34.9,33.0,-99.9,0.0,200.0,0,0,100,30.11,29.95,14,9,18,0.00
2014-12-14,40.0,38.3,36.0,-99.9,0.0,200.0,0,0,100,30.07,29.92,10,6,14,0.00
2014-12-15,40.0,38.5,37.0,-99.9,0.0,200.0,0,0,100,30.10,29.96,7,2,10,0.00
2014-12-16,45.0,38.8,34.0,-99.9,0.0,200.0,0,0,100,29.96,29.71,9,4,14,0.00
2014-12-17,44.0,37.9,32.0,-99.9,0.0,200.0,0,0,100,29.99,29.75,20,12,29,0.00
2014-12-18,35.0,32.9,30.0,-99.9,0.0,200.0,0,0,100,30.10,29.99,21,16,28,0.00
2014-12-19,33.0,29.7,28.0,-99.9,0.0,200.0,0,0,100,30.27,30.09,18,13,26,0.00
2014-12-20,33.0,28.3,27.0,-99.9,0.0,200.0,0,0,100,30.30,30.23,10,2,13,0.00
2014-12-21,34.0,31.7,28.0,-99.9,0.0,200.0,0,0,100,30.32,30.26,6,2,8,0.00
2014-12-22,38.0,33.5,29.0,-99.9,0.0,200.0,0,0,100,30.28,30.02,10,3,14,0.00
2014-12-23,45.0,38.9,34.0,-99.9,0.0,200.0,0,0,100,30.03,29.85,8,2,11,0.00
2014-12-24,58.0,47.4,39.0,-99.9,0.0,200.0,0,0,100,29.84,29.19,24,6,34,0.00
2014-12-25,45.0,41.5,40.0,-99.9,0.0,200.0,0,0,100,30.11,29.30,26,18,47,0.00
2014-12-26,47.0,41.3,37.0,-99.9,0.0,200.0,0,0,100,30.20,30.09,16,9,23,0.00
2014-12-27,54.0,46.4,39.0,-99.9,0.0,200.0,0,0,100,30.15,29.87,18,9,30,0.00
2014-12-28,49.0,38.4,35.0,-99.9,0.0,200.0,0,0,100,30.12,29.85,24,16,31,0.00
2014-12-29,35.0,31.0,28.0,-99.9,0.0,200.0,0,0,100,30.32,30.13,21,10,25,0.00
2014-12-30,30.0,25.9,22.0,-99.9,0.0,200.0,0,0,100,30.46,30.33,21,10,26,0.00
2014-12-31,24.0,21.6,17.0,-99.9,0.0,200.0,0,0,100,30.35,30.02,26,15,33,0.00
2015-1-1,32.0,26.8,21.0,-99.9,0.0,200.0,0,0,100,30.02,29.80,25,17,38,0.00
2015-1-2,32.0,30.4,26.0,-99.9,0.0,200.0,0,0,100,30.41,29.97,22,13,30,0.00